Location: Bieujac
(44.5398°N, 0.1549°W)
Time: 07:48:23
(UTC+00:00)

STARLINK-37 - Pass Details

Date: 17 November 2019
Orbit: 542 x 543 km, 53.0° (Epoch: 06 December)

Event Time Altitude Azimuth Distance (km) Brightness Sun altitude
Exits shadow 05:19:45 15° 216° (SW) 1,518 5.6 -17.6°
Maximum altitude 05:23:02 56° 141° (SE) 647 4.2 -17.1°
Drops below altitude 10° 05:27:04 10° 63° (ENE) 1,814 7.0 -16.3°
Sets 05:29:19 0° 59° (ENE) 2,711 7.9 -16.0°
